KUIPER-00091

Last updated on Sat Aug 16 2025 00:02:06 GMT+0000 (Coordinated Universal Time)

1 64836U 25151W 25227.46005340 .00028758 00000+0 81426-3 0 9994 2 64836 51.8770 141.9762 0005368 241.7511 118.2934 15.36043242 4631
UTC large
Height (km)
Speed (km/s)
/
Latitude / Longitude
Inclination (degrees)
Orbital Period (minutes)
Azimuth
Elevation
Range (km)
Doppler Factor

Next 0 passes for location: London (51.5072 / 0.1276)

Sorry there are no passes over London.